Location: ??????
(30.5519°N, 47.7720°E)
Time: 17:55:48
(UTC+00:00)

Cosmos 1937 Rocket - Visible Passes

Search period start: 14 May 2021 00:00
Search period end: 24 May 2021 00:00
Orbit: 746 x 780 km, 74.0° (Epoch: 14 May)

Date Brightness Start Highest point End Pass type
(mag) Time Alt. Az. Time Alt. Az. Time Alt. Az.
14 May 4.9 18:34:09 30° NNE 18:34:09 30° NNE 18:36:41 10° NNE visible
15 May 4.9 17:55:33 25° NE 17:55:33 25° NE 17:57:58 10° NNE visible
15 May 5.8 19:35:39 18° WNW 19:35:39 18° WNW 19:38:43 10° NNW visible
16 May 5.2 17:16:49 17° ENE 17:16:49 17° ENE 17:18:40 10° NE visible
16 May 4.9 18:56:54 33° WNW 18:56:54 33° WNW 19:01:14 10° N visible
17 May 3.7 18:18:00 64° WNW 18:18:03 64° WNW 18:23:11 10° N visible
18 May 3.3 17:38:51 57° SSE 17:39:38 66° ESE 17:44:45 10° NNE visible
18 May 6.3 19:20:33 10° WNW 19:22:01 11° WNW 19:23:29 10° NW visible
19 May 4.1 16:59:22 25° SE 17:01:19 33° E 17:05:54 10° NE visible
19 May 5.7 18:39:25 10° WSW 18:43:16 21° WNW 18:47:09 10° NNW visible
20 May 4.9 16:19:51 10° SE 16:23:06 17° E 16:26:22 10° ENE visible
20 May 4.7 17:59:52 10° SW 18:04:38 39° WNW 18:09:28 10° N visible
21 May 3.6 17:21:01 10° SSW 17:26:08 77° WNW 17:31:19 10° NNE visible
22 May 3.5 16:42:45 10° S 16:47:45 55° ESE 16:52:47 10° NNE visible
22 May 6.3 18:27:34 10° W 18:30:01 13° WNW 18:32:27 10° NW visible
23 May 4.3 16:05:08 10° SSE 16:09:27 28° E 16:13:48 10° NE visible
23 May 5.7 17:47:07 10° WSW 17:51:17 25° WNW 17:55:30 10° NNW visible
